<?xml version="1.0" encoding="UTF-8" standalone="no" ?>
<gpx xmlns="http://www.topografix.com/GPX/1/1" xmlns:xsi="http://www.w3.org/2001/XMLSchema-instance" xsi:schemaLocation="http://www.topografix.com/GPX/1/1 http://www.topografix.com/GPX/1/1/gpx.xsd" version="1.1" creator="VisuGPX - https://www.visugpx.com">
  <metadata>
    <name>5_km_poussette</name>
  </metadata>
  <trk>
    <name><![CDATA[5 km poussette-22691559]]></name>
    <extensions>
      <line xmlns="http://www.topografix.com/GPX/gpx_style/0/2">
        <color>0000FF</color>
        <width>4</width>
      </line>
    </extensions>
    <trkseg>
      <trkpt lat="45.99859" lon="4.17615">
        <ele>436</ele>
        <time>2026-02-01T12:05:18Z</time>
      </trkpt>
      <trkpt lat="45.99907" lon="4.17643">
        <ele>435</ele>
        <time>2026-02-01T12:06:27Z</time>
      </trkpt>
      <trkpt lat="45.99924" lon="4.17643">
        <ele>436</ele>
        <time>2026-02-01T12:06:50Z</time>
      </trkpt>
      <trkpt lat="45.99943" lon="4.17641">
        <ele>436</ele>
        <time>2026-02-01T12:07:15Z</time>
      </trkpt>
      <trkpt lat="45.99979" lon="4.17629">
        <ele>438</ele>
        <time>2026-02-01T12:08:05Z</time>
      </trkpt>
      <trkpt lat="46.00002" lon="4.17629">
        <ele>439</ele>
        <time>2026-02-01T12:08:35Z</time>
      </trkpt>
      <trkpt lat="46.00057" lon="4.17612">
        <ele>439</ele>
        <time>2026-02-01T12:09:50Z</time>
      </trkpt>
      <trkpt lat="46.00081" lon="4.17609">
        <ele>440</ele>
        <time>2026-02-01T12:10:22Z</time>
      </trkpt>
      <trkpt lat="46.00098" lon="4.17609">
        <ele>440</ele>
        <time>2026-02-01T12:10:45Z</time>
      </trkpt>
      <trkpt lat="46.0012" lon="4.17608">
        <ele>440</ele>
        <time>2026-02-01T12:11:15Z</time>
      </trkpt>
      <trkpt lat="46.00159" lon="4.17612">
        <ele>441</ele>
        <time>2026-02-01T12:12:07Z</time>
      </trkpt>
      <trkpt lat="46.00188" lon="4.17618">
        <ele>442</ele>
        <time>2026-02-01T12:12:46Z</time>
      </trkpt>
      <trkpt lat="46.00265" lon="4.17638">
        <ele>443</ele>
        <time>2026-02-01T12:14:30Z</time>
      </trkpt>
      <trkpt lat="46.00309" lon="4.17644">
        <ele>443</ele>
        <time>2026-02-01T12:15:29Z</time>
      </trkpt>
      <trkpt lat="46.00479" lon="4.17644">
        <ele>445</ele>
        <time>2026-02-01T12:19:16Z</time>
      </trkpt>
      <trkpt lat="46.00532" lon="4.17649">
        <ele>445</ele>
        <time>2026-02-01T12:20:27Z</time>
      </trkpt>
      <trkpt lat="46.00568" lon="4.1765">
        <ele>445</ele>
        <time>2026-02-01T12:21:15Z</time>
      </trkpt>
      <trkpt lat="46.00595" lon="4.17646">
        <ele>445</ele>
        <time>2026-02-01T12:21:51Z</time>
      </trkpt>
      <trkpt lat="46.00615" lon="4.17641">
        <ele>445</ele>
        <time>2026-02-01T12:22:18Z</time>
      </trkpt>
      <trkpt lat="46.00655" lon="4.17625">
        <ele>443</ele>
        <time>2026-02-01T12:23:14Z</time>
      </trkpt>
      <trkpt lat="46.00696" lon="4.17611">
        <ele>442</ele>
        <time>2026-02-01T12:24:10Z</time>
      </trkpt>
      <trkpt lat="46.00723" lon="4.17609">
        <ele>441</ele>
        <time>2026-02-01T12:24:46Z</time>
      </trkpt>
      <trkpt lat="46.0073" lon="4.17609">
        <ele>441</ele>
        <time>2026-02-01T12:24:55Z</time>
      </trkpt>
      <trkpt lat="46.00746" lon="4.17609">
        <ele>441</ele>
        <time>2026-02-01T12:25:17Z</time>
      </trkpt>
      <trkpt lat="46.00768" lon="4.17615">
        <ele>441</ele>
        <time>2026-02-01T12:25:47Z</time>
      </trkpt>
      <trkpt lat="46.00842" lon="4.17661">
        <ele>440</ele>
        <time>2026-02-01T12:27:34Z</time>
      </trkpt>
      <trkpt lat="46.0086" lon="4.1767">
        <ele>440</ele>
        <time>2026-02-01T12:28:00Z</time>
      </trkpt>
      <trkpt lat="46.00866" lon="4.17678">
        <ele>440</ele>
        <time>2026-02-01T12:28:10Z</time>
      </trkpt>
      <trkpt lat="46.0087" lon="4.17683">
        <ele>440</ele>
        <time>2026-02-01T12:28:18Z</time>
      </trkpt>
      <trkpt lat="46.00887" lon="4.17726">
        <ele>442</ele>
        <time>2026-02-01T12:29:03Z</time>
      </trkpt>
      <trkpt lat="46.00905" lon="4.17767">
        <ele>443</ele>
        <time>2026-02-01T12:29:48Z</time>
      </trkpt>
      <trkpt lat="46.00937" lon="4.17817">
        <ele>445</ele>
        <time>2026-02-01T12:30:51Z</time>
      </trkpt>
      <trkpt lat="46.00956" lon="4.17837">
        <ele>445</ele>
        <time>2026-02-01T12:31:23Z</time>
      </trkpt>
      <trkpt lat="46.00972" lon="4.17847">
        <ele>445</ele>
        <time>2026-02-01T12:31:46Z</time>
      </trkpt>
      <trkpt lat="46.00997" lon="4.17849">
        <ele>445</ele>
        <time>2026-02-01T12:32:19Z</time>
      </trkpt>
      <trkpt lat="46.01029" lon="4.17844">
        <ele>446</ele>
        <time>2026-02-01T12:33:02Z</time>
      </trkpt>
      <trkpt lat="46.01121" lon="4.17851">
        <ele>446</ele>
        <time>2026-02-01T12:35:05Z</time>
      </trkpt>
      <trkpt lat="46.01177" lon="4.17866">
        <ele>446</ele>
        <time>2026-02-01T12:36:21Z</time>
      </trkpt>
      <trkpt lat="46.01215" lon="4.1788">
        <ele>445</ele>
        <time>2026-02-01T12:37:14Z</time>
      </trkpt>
      <trkpt lat="46.01238" lon="4.17889">
        <ele>445</ele>
        <time>2026-02-01T12:37:46Z</time>
      </trkpt>
      <trkpt lat="46.01261" lon="4.17905">
        <ele>445</ele>
        <time>2026-02-01T12:38:20Z</time>
      </trkpt>
      <trkpt lat="46.01264" lon="4.17907">
        <ele>445</ele>
        <time>2026-02-01T12:38:24Z</time>
      </trkpt>
      <trkpt lat="46.01282" lon="4.17845">
        <ele>443</ele>
        <time>2026-02-01T12:39:26Z</time>
      </trkpt>
      <trkpt lat="46.01298" lon="4.17775">
        <ele>442</ele>
        <time>2026-02-01T12:40:35Z</time>
      </trkpt>
      <trkpt lat="46.01322" lon="4.17708">
        <ele>440</ele>
        <time>2026-02-01T12:41:44Z</time>
      </trkpt>
      <trkpt lat="46.0134" lon="4.1766">
        <ele>439</ele>
        <time>2026-02-01T12:42:35Z</time>
      </trkpt>
      <trkpt lat="46.01357" lon="4.1761">
        <ele>437</ele>
        <time>2026-02-01T12:43:27Z</time>
      </trkpt>
      <trkpt lat="46.01443" lon="4.17244">
        <ele>428</ele>
        <time>2026-02-01T12:49:25Z</time>
      </trkpt>
      <trkpt lat="46.01444" lon="4.17238">
        <ele>428</ele>
        <time>2026-02-01T12:49:30Z</time>
      </trkpt>
      <trkpt lat="46.01406" lon="4.17221">
        <ele>428</ele>
        <time>2026-02-01T12:50:23Z</time>
      </trkpt>
      <trkpt lat="46.01383" lon="4.17195">
        <ele>428</ele>
        <time>2026-02-01T12:51:03Z</time>
      </trkpt>
      <trkpt lat="46.01348" lon="4.17169">
        <ele>428</ele>
        <time>2026-02-01T12:51:55Z</time>
      </trkpt>
      <trkpt lat="46.01333" lon="4.17162">
        <ele>429</ele>
        <time>2026-02-01T12:52:16Z</time>
      </trkpt>
      <trkpt lat="46.01328" lon="4.17162">
        <ele>429</ele>
        <time>2026-02-01T12:52:23Z</time>
      </trkpt>
      <trkpt lat="46.01322" lon="4.17087">
        <ele>428</ele>
        <time>2026-02-01T12:53:33Z</time>
      </trkpt>
      <trkpt lat="46.01322" lon="4.17049">
        <ele>427</ele>
        <time>2026-02-01T12:54:08Z</time>
      </trkpt>
      <trkpt lat="46.01332" lon="4.16959">
        <ele>425</ele>
        <time>2026-02-01T12:55:32Z</time>
      </trkpt>
      <trkpt lat="46.01333" lon="4.1695">
        <ele>425</ele>
        <time>2026-02-01T12:55:41Z</time>
      </trkpt>
      <trkpt lat="46.01342" lon="4.1693">
        <ele>424</ele>
        <time>2026-02-01T12:56:03Z</time>
      </trkpt>
      <trkpt lat="46.01352" lon="4.1692">
        <ele>423</ele>
        <time>2026-02-01T12:56:19Z</time>
      </trkpt>
      <trkpt lat="46.01376" lon="4.16904">
        <ele>422</ele>
        <time>2026-02-01T12:56:55Z</time>
      </trkpt>
      <trkpt lat="46.01396" lon="4.1687">
        <ele>421</ele>
        <time>2026-02-01T12:57:36Z</time>
      </trkpt>
      <trkpt lat="46.01402" lon="4.16858">
        <ele>421</ele>
        <time>2026-02-01T12:57:50Z</time>
      </trkpt>
      <trkpt lat="46.01396" lon="4.1687">
        <ele>421</ele>
        <time>2026-02-01T12:58:03Z</time>
      </trkpt>
      <trkpt lat="46.01376" lon="4.16904">
        <ele>422</ele>
        <time>2026-02-01T12:58:45Z</time>
      </trkpt>
      <trkpt lat="46.01352" lon="4.1692">
        <ele>423</ele>
        <time>2026-02-01T12:59:20Z</time>
      </trkpt>
      <trkpt lat="46.01342" lon="4.1693">
        <ele>424</ele>
        <time>2026-02-01T12:59:36Z</time>
      </trkpt>
      <trkpt lat="46.01333" lon="4.1695">
        <ele>425</ele>
        <time>2026-02-01T12:59:58Z</time>
      </trkpt>
      <trkpt lat="46.01332" lon="4.16959">
        <ele>425</ele>
        <time>2026-02-01T13:00:07Z</time>
      </trkpt>
      <trkpt lat="46.01227" lon="4.16953">
        <ele>424</ele>
        <time>2026-02-01T13:02:27Z</time>
      </trkpt>
      <trkpt lat="46.01171" lon="4.16962">
        <ele>420</ele>
        <time>2026-02-01T13:03:42Z</time>
      </trkpt>
      <trkpt lat="46.01129" lon="4.16942">
        <ele>417</ele>
        <time>2026-02-01T13:04:41Z</time>
      </trkpt>
      <trkpt lat="46.01077" lon="4.16943">
        <ele>416</ele>
        <time>2026-02-01T13:05:50Z</time>
      </trkpt>
      <trkpt lat="46.0105" lon="4.16988">
        <ele>418</ele>
        <time>2026-02-01T13:06:46Z</time>
      </trkpt>
      <trkpt lat="46.00892" lon="4.16964">
        <ele>429</ele>
        <time>2026-02-01T13:10:18Z</time>
      </trkpt>
      <trkpt lat="46.00877" lon="4.17031">
        <ele>430</ele>
        <time>2026-02-01T13:11:23Z</time>
      </trkpt>
      <trkpt lat="46.00854" lon="4.17088">
        <ele>432</ele>
        <time>2026-02-01T13:12:24Z</time>
      </trkpt>
      <trkpt lat="46.00829" lon="4.17169">
        <ele>433</ele>
        <time>2026-02-01T13:13:46Z</time>
      </trkpt>
      <trkpt lat="46.00824" lon="4.17215">
        <ele>433</ele>
        <time>2026-02-01T13:14:29Z</time>
      </trkpt>
      <trkpt lat="46.00819" lon="4.17271">
        <ele>434</ele>
        <time>2026-02-01T13:15:22Z</time>
      </trkpt>
      <trkpt lat="46.00805" lon="4.17324">
        <ele>435</ele>
        <time>2026-02-01T13:16:14Z</time>
      </trkpt>
      <trkpt lat="46.00765" lon="4.17409">
        <ele>436</ele>
        <time>2026-02-01T13:17:49Z</time>
      </trkpt>
      <trkpt lat="46.00753" lon="4.17443">
        <ele>438</ele>
        <time>2026-02-01T13:18:25Z</time>
      </trkpt>
      <trkpt lat="46.00744" lon="4.17509">
        <ele>439</ele>
        <time>2026-02-01T13:19:27Z</time>
      </trkpt>
      <trkpt lat="46.0073" lon="4.17609">
        <ele>441</ele>
        <time>2026-02-01T13:21:02Z</time>
      </trkpt>
      <trkpt lat="46.00723" lon="4.17609">
        <ele>441</ele>
        <time>2026-02-01T13:21:11Z</time>
      </trkpt>
      <trkpt lat="46.00696" lon="4.17611">
        <ele>442</ele>
        <time>2026-02-01T13:21:47Z</time>
      </trkpt>
      <trkpt lat="46.00655" lon="4.17625">
        <ele>443</ele>
        <time>2026-02-01T13:22:43Z</time>
      </trkpt>
      <trkpt lat="46.00615" lon="4.17641">
        <ele>445</ele>
        <time>2026-02-01T13:23:39Z</time>
      </trkpt>
      <trkpt lat="46.00595" lon="4.17646">
        <ele>445</ele>
        <time>2026-02-01T13:24:06Z</time>
      </trkpt>
      <trkpt lat="46.00568" lon="4.1765">
        <ele>445</ele>
        <time>2026-02-01T13:24:42Z</time>
      </trkpt>
      <trkpt lat="46.00532" lon="4.17649">
        <ele>445</ele>
        <time>2026-02-01T13:25:30Z</time>
      </trkpt>
      <trkpt lat="46.00479" lon="4.17644">
        <ele>445</ele>
        <time>2026-02-01T13:26:41Z</time>
      </trkpt>
      <trkpt lat="46.00309" lon="4.17644">
        <ele>443</ele>
        <time>2026-02-01T13:30:28Z</time>
      </trkpt>
      <trkpt lat="46.00265" lon="4.17638">
        <ele>443</ele>
        <time>2026-02-01T13:31:27Z</time>
      </trkpt>
      <trkpt lat="46.00188" lon="4.17618">
        <ele>442</ele>
        <time>2026-02-01T13:33:11Z</time>
      </trkpt>
      <trkpt lat="46.00159" lon="4.17612">
        <ele>441</ele>
        <time>2026-02-01T13:33:50Z</time>
      </trkpt>
      <trkpt lat="46.0012" lon="4.17608">
        <ele>440</ele>
        <time>2026-02-01T13:34:42Z</time>
      </trkpt>
      <trkpt lat="46.00098" lon="4.17609">
        <ele>440</ele>
        <time>2026-02-01T13:35:12Z</time>
      </trkpt>
      <trkpt lat="46.00081" lon="4.17609">
        <ele>440</ele>
        <time>2026-02-01T13:35:34Z</time>
      </trkpt>
      <trkpt lat="46.00057" lon="4.17612">
        <ele>439</ele>
        <time>2026-02-01T13:36:07Z</time>
      </trkpt>
      <trkpt lat="46.00002" lon="4.17629">
        <ele>439</ele>
        <time>2026-02-01T13:37:22Z</time>
      </trkpt>
      <trkpt lat="45.99979" lon="4.17629">
        <ele>438</ele>
        <time>2026-02-01T13:37:52Z</time>
      </trkpt>
      <trkpt lat="45.99943" lon="4.17641">
        <ele>436</ele>
        <time>2026-02-01T13:38:42Z</time>
      </trkpt>
      <trkpt lat="45.99924" lon="4.17643">
        <ele>436</ele>
        <time>2026-02-01T13:39:07Z</time>
      </trkpt>
      <trkpt lat="45.99907" lon="4.17643">
        <ele>435</ele>
        <time>2026-02-01T13:39:30Z</time>
      </trkpt>
      <trkpt lat="45.99857" lon="4.17614">
        <ele>436</ele>
        <time>2026-02-01T13:40:42Z</time>
      </trkpt>
    </trkseg>
  </trk>
</gpx>